Wind_Speed
8 8 8 8 8 9 11 11 10 11 12 13 13 14 15 14 14 15 16 17 17 18 16 16 16 16 15 16 16 17 17 17 16 16 16 16 17 16 15 15 16 18 19 19
9 8 7 8 8 9 11 12 12 11 13 13 14 14 15 15 15 16 16 16 17 16 15 16 15 15 16 16 15 16 15 15 16 16 15 16 17 17 17 16 17 18 18 18
7 7 7 8 9 10 11 13 13 14 14 13 14 14 14 14 16 16 16 16 16 15 15 15 15 15 15 15 16 16 16 16 16 17 16 16 17 17 18 18 18 18 18 18
7 6 7 8 9 11 13 13 13 14 14 14 14 15 13 13 14 15 16 15 14 13 13 13 14 16 15 15 15 16 16 16 17 17 17 17 18 17 17 18 18 18 18 18
7 6 7 8 9 10 11 11 12 14 14 13 14 15 13 13 13 14 14 13 12 12 13 13 14 15 15 16 16 16 16 17 17 17 17 17 17 17 17 17 17 17 18 18
7 7 8 9 9 9 10 11 11 12 12 13 13 13 12 12 13 13 12 12 11 12 13 14 15 15 14 14 16 17 16 17 17 17 16 15 15 16 16 16 16 16 16 17
8 8 10 11 11 10 10 11 11 11 12 12 12 11 11 12 12 13 13 12 11 12 13 13 13 13 12 12 14 15 15 16 16 16 16 16 15 15 16 15 14 15 15 15
10 10 11 11 11 11 11 10 10 12 13 13 12 12 11 12 12 12 12 12 11 11 11 10 9 9 9 10 11 13 14 14 14 14 14 14 15 15 15 15 15 15 14 14
12 10 10 10 10 11 11 10 10 11 13 13 12 12 11 11 12 12 11 10 10 10 9 9 8 7 8 9 10 11 12 13 14 14 14 13 14 15 15 15 15 14 14 14
13 11 10 10 11 11 11 10 11 12 13 13 13 12 12 11 10 11 11 10 9 9 8 7 7 7 8 8 9 9 10 11 12 13 13 13 13 13 14 14 13 13 13 13
14 13 11 11 12 12 11 11 11 12 13 14 15 13 12 12 11 11 11 10 10 10 8 7 7 8 8 9 10 10 10 10 11 11 11 12 12 13 13 13 12 12 12 12
14 14 13 13 12 11 11 11 11 13 14 14 15 14 12 12 12 11 11 10 10 9 8 7 7 8 9 9 10 9 9 10 10 10 10 11 11 12 13 12 12 13 12 12
14 14 14 14 14 12 11 12 13 14 14 14 13 14 13 13 12 12 11 10 9 9 8 8 8 9 10 10 10 9 9 10 10 10 10 10 10 11 12 11 11 12 12 12
14 15 15 15 14 14 13 13 13 15 15 14 14 14 13 13 12 11 11 9 9 9 9 10 10 10 11 11 10 9 10 10 9 9 9 9 10 11 12 12 12 11 11 11
16 16 16 15 16 16 16 16 15 16 16 16 16 15 14 12 11 11 11 10 9 9 9 10 11 12 11 11 11 10 9 9 9 9 9 10 11 12 12 12 11 11 11 11
18 17 16 16 17 17 17 17 17 17 16 16 16 16 15 13 12 11 11 11 11 10 10 11 12 11 12 11 10 10 10 10 9 10 10 11 12 13 12 11 10 10 11 12
19 19 18 18 18 18 18 16 17 17 16 16 16 15 14 13 12 12 12 12 12 12 11 11 11 12 11 11 11 11 12 12 11 11 11 12 12 12 11 11 11 11 12 13
21 21 21 21 20 20 17 17 17 17 17 15 15 14 14 14 13 13 13 13 13 13 13 14 13 12 12 12 13 13 12 12 12 13 13 13 13 12 12 12 13 13 14 14
21 20 21 21 20 20 17 16 17 17 16 16 15 15 15 16 15 14 14 14 14 14 15 15 15 15 15 14 14 13 13 13 14 14 14 14 14 14 14 14 14 15 15 15
20 21 21 21 22 21 18 18 17 17 17 16 16 16 16 17 17 16 15 16 16 16 16 16 16 16 16 15 14 14 14 15 15 15 15 15 15 15 15 16 16 16 16 16
21 21 21 22 22 21 19 19 18 19 18 17 17 17 17 17 17 18 18 18 18 18 18 17 17 17 15 15 15 15 15 15 16 16 16 16 16 17 16 16 16 17 17 17
21 22 22 23 23 22 20 21 21 20 19 19 19 19 19 19 19 19 19 19 19 17 18 18 17 18 17 17 16 16 16 16 16 16 16 17 17 17 17 17 17 17 17 18
23 23 24 23 23 22 23 23 22 21 20 21 21 21 21 20 19 20 20 20 19 19 19 18 18 18 18 17 17 17 16 16 16 16 16 16 16 17 17 16 16 17 17 17
23 24 25 25 24 24 24 23 23 22 21 22 23 23 23 22 21 21 21 20 18 18 19 19 18 18 19 18 18 17 17 17 16 16 16 16 16 16 15 15 16 16 16 16
24 24 25 26 25 25 24 24 23 23 23 24 24 24 23 22 22 21 21 20 19 18 19 19 19 20 20 19 18 17 17 17 17 17 16 16 15 15 15 15 15 16 16 16
23 24 25 25 24 24 24 24 24 24 24 24 23 24 23 23 23 22 21 21 21 21 20 20 20 20 20 19 19 18 18 18 17 16 16 15 15 15 15 15 15 16 16 16
Wind_Direction
267 269 272 278 288 293 295 295 293 290 290 286 287 291 289 290 281 279 281 283 283 288 283 280 276 274 272 271 270 271 268 266 266 271 272 269 270 274 279 278 277 279 278 278
273 278 281 283 288 291 288 292 299 297 292 291 287 287 289 291 287 285 283 283 286 287 289 282 277 274 273 272 269 269 266 265 267 272 274 273 273 275 277 282 282 281 280 282
280 282 281 285 286 286 285 292 301 299 294 290 288 288 291 290 290 289 288 287 286 284 285 282 279 279 277 273 268 264 264 266 267 269 273 273 274 275 278 281 281 284 284 283
287 286 280 280 280 281 285 294 297 295 291 290 290 296 297 295 298 299 296 296 296 289 288 282 280 280 276 272 266 263 264 266 267 269 272 276 278 279 284 281 279 282 284 284
280 274 274 277 280 284 290 295 292 291 291 291 292 294 302 300 296 299 300 299 299 297 294 289 284 283 276 269 265 267 265 266 268 271 273 274 278 282 284 284 282 281 283 283
278 270 273 278 278 282 285 288 289 290 290 292 295 295 301 306 304 302 301 299 298 299 296 291 285 282 278 267 265 267 267 268 269 268 268 271 277 283 286 286 284 284 285 286
278 273 272 278 278 276 282 287 290 290 289 296 305 301 308 312 309 306 305 305 299 294 290 292 288 283 281 271 265 264 265 266 266 267 267 272 277 283 286 284 284 288 287 285
277 273 271 276 284 279 283 288 292 298 300 301 303 306 311 310 315 313 308 307 302 289 291 292 291 288 285 279 272 269 267 268 266 267 268 272 275 282 284 283 287 289 289 290
279 272 269 274 282 278 279 283 286 294 297 296 299 304 310 309 311 314 310 305 297 290 290 294 290 290 289 287 280 273 267 267 266 267 269 272 278 282 285 288 288 288 292 291
278 277 273 271 274 275 276 282 288 294 299 301 303 305 305 302 305 306 304 300 296 291 287 288 294 296 295 288 283 281 275 274 272 273 273 275 283 287 290 289 289 290 291 292
275 275 273 270 271 278 272 273 282 289 294 299 302 304 306 302 304 308 308 303 298 293 281 278 291 298 292 286 285 284 285 284 285 283 280 277 282 286 290 291 287 288 289 291
271 270 269 268 271 276 275 274 277 286 291 293 298 304 304 302 303 303 308 305 303 292 284 279 291 293 291 288 290 291 290 292 292 289 286 285 285 290 292 289 284 283 284 287
271 272 272 270 270 272 274 276 283 284 287 289 295 302 305 306 305 303 303 301 303 300 293 291 292 294 295 290 289 294 288 289 291 292 290 291 292 295 295 291 288 286 287 290
275 274 271 269 273 276 274 278 279 281 283 287 294 298 300 303 303 302 303 296 299 305 298 295 293 289 291 291 289 289 288 291 293 292 289 290 293 296 296 293 291 291 291 292
274 273 270 266 267 271 274 275 275 278 281 285 291 292 293 297 300 303 301 298 300 297 297 296 290 285 289 291 292 290 290 294 301 302 300 297 297 299 298 294 290 291 291 292
273 269 269 266 265 268 272 276 277 278 280 281 285 287 292 292 293 294 297 300 305 304 297 296 292 294 294 292 293 293 292 292 298 301 300 299 299 299 298 295 293 291 291 294
270 268 270 270 269 272 274 276 276 278 279 279 280 282 288 289 286 289 293 296 299 302 300 300 294 294 299 293 290 292 293 294 297 297 294 294 296 297 295 294 292 292 293 295
273 271 272 272 272 272 275 275 275 276 278 276 275 277 284 286 286 286 289 293 296 299 300 301 296 294 294 292 289 287 288 291 293 294 294 295 295 295 293 293 292 293 294 295
268 269 273 274 275 275 273 273 273 274 275 278 278 278 281 283 283 284 287 291 294 295 297 298 295 292 293 290 287 285 286 289 292 293 293 292 291 292 290 290 291 292 293 295
266 267 268 271 272 273 273 274 273 273 272 274 275 279 281 281 281 284 287 289 289 291 293 294 290 290 291 287 285 283 286 287 289 290 290 290 290 290 290 289 290 291 293 295
266 266 265 268 270 270 272 272 274 273 272 272 273 275 278 278 279 282 283 284 288 289 291 289 286 283 285 284 284 283 284 286 287 288 288 290 289 289 288 288 289 291 293 295
267 267 267 267 268 269 271 270 272 274 272 271 272 273 275 277 279 282 282 284 288 287 287 288 285 283 283 285 287 286 285 285 287 288 288 289 287 287 287 288 289 291 294 296
264 265 264 265 268 269 266 268 269 269 268 270 272 273 275 276 277 281 281 281 282 281 283 284 282 282 285 285 285 284 283 284 286 287 288 289 289 288 288 288 289 291 294 296
261 264 264 265 266 266 266 267 268 265 266 267 270 272 274 273 274 275 277 278 279 277 279 280 278 279 282 285 284 283 282 284 288 290 290 291 290 289 289 290 291 293 295 296
261 258 260 262 264 263 264 266 268 268 268 268 267 269 269 270 269 272 270 270 274 277 278 278 277 279 281 281 281 282 282 282 285 287 288 289 291 290 290 292 295 297 297 298
261 258 258 259 260 261 262 264 265 266 268 269 268 269 269 270 271 271 272 273 276 279 277 275 275 279 280 279 279 279 280 282 284 286 286 286 289 290 290 293 296 299 300 299
Height
5849 5849 5848 5848 5847 5846 5845 5844 5843 5842 5841 5840 5839 5837 5836 5835 5835 5835 5835 5835 5835 5834 5832 5833 5832 5832 5832 5832 5832 5832 5831 5832 5833 5833 5833 5833 5833 5833 5833 5832 5831 5830 5830 5829
5847 5846 5846 5844 5843 5843 5842 5841 5840 5840 5839 5837 5836 5834 5833 5832 5832 5831 5831 5831 5831 5830 5829 5829 5828 5828 5828 5828 5828 5828 5828 5828 5829 5829 5829 5829 5828 5828 5828 5827 5826 5826 5825 5824
5843 5844 5842 5841 5841 5841 5840 5839 5838 5837 5836 5834 5833 5832 5831 5829 5829 5828 5827 5827 5826 5826 5825 5825 5825 5825 5824 5824 5824 5824 5825 5825 5825 5825 5825 5824 5824 5824 5824 5823 5822 5821 5820 5819
5840 5840 5840 5839 5838 5838 5837 5837 5835 5834 5833 5832 5830 5828 5828 5827 5826 5825 5823 5822 5822 5822 5822 5821 5821 5820 5820 5820 5820 5820 5820 5820 5821 5821 5821 5820 5820 5820 5819 5818 5817 5816 5815 5814
5838 5838 5837 5836 5836 5835 5835 5833 5833 5832 5830 5829 5828 5825 5826 5824 5823 5821 5820 5819 5819 5818 5818 5817 5817 5817 5816 5815 5816 5816 5816 5816 5816 5816 5816 5816 5816 5815 5814 5813 5812 5811 5810 5809
5835 5835 5834 5834 5833 5832 5832 5831 5830 5829 5828 5826 5825 5823 5822 5821 5820 5819 5818 5817 5816 5815 5814 5813 5813 5812 5812 5811 5811 5811 5811 5812 5812 5811 5812 5811 5811 5810 5809 5808 5807 5806 5805 5804
5832 5832 5831 5831 5830 5830 5829 5828 5828 5826 5825 5824 5822 5820 5820 5818 5817 5815 5815 5814 5812 5811 5810 5809 5809 5808 5808 5807 5806 5806 5807 5807 5807 5807 5807 5807 5806 5806 5805 5803 5803 5801 5800 5799
5829 5829 5828 5828 5827 5827 5826 5826 5825 5824 5822 5821 5819 5817 5818 5815 5814 5813 5812 5811 5810 5808 5807 5806 5805 5805 5804 5804 5803 5802 5802 5802 5803 5803 5803 5802 5802 5801 5800 5799 5798 5797 5796 5795
5826 5826 5826 5825 5825 5824 5824 5823 5823 5821 5820 5818 5817 5816 5814 5812 5811 5810 5809 5807 5807 5806 5804 5803 5803 5802 5802 5801 5800 5800 5799 5799 5798 5798 5798 5798 5797 5797 5796 5794 5794 5793 5792 5791
5822 5822 5823 5823 5822 5822 5822 5821 5820 5819 5817 5815 5814 5813 5812 5810 5809 5808 5806 5805 5804 5803 5802 5801 5801 5800 5799 5799 5798 5796 5795 5795 5794 5794 5794 5793 5793 5793 5792 5790 5789 5789 5788 5787
5819 5819 5819 5819 5819 5819 5819 5818 5817 5815 5814 5813 5811 5813 5810 5808 5806 5805 5804 5803 5802 5801 5800 5799 5798 5798 5797 5796 5795 5793 5792 5791 5791 5790 5790 5789 5789 5789 5787 5786 5785 5785 5784 5782
5816 5816 5815 5815 5816 5815 5815 5814 5814 5813 5812 5810 5808 5811 5807 5805 5803 5802 5801 5800 5799 5798 5797 5796 5795 5795 5794 5793 5792 5791 5789 5789 5788 5787 5786 5786 5785 5785 5784 5782 5781 5780 5779 5778
5813 5813 5812 5812 5814 5813 5812 5811 5811 5810 5808 5807 5806 5807 5803 5802 5800 5799 5798 5797 5795 5795 5794 5793 5792 5792 5791 5790 5789 5788 5787 5787 5785 5784 5783 5782 5782 5781 5780 5778 5777 5776 5775 5774
5809 5809 5809 5809 5809 5808 5808 5808 5807 5806 5805 5803 5803 5802 5800 5798 5797 5796 5795 5794 5793 5792 5792 5791 5790 5789 5789 5788 5787 5786 5785 5784 5782 5781 5780 5779 5779 5778 5776 5775 5774 5772 5771 5770
5805 5805 5804 5804 5804 5803 5803 5803 5804 5803 5801 5800 5799 5798 5797 5795 5794 5794 5793 5792 5791 5790 5790 5789 5788 5787 5786 5785 5784 5783 5782 5781 5779 5778 5777 5776 5775 5774 5773 5771 5770 5769 5768 5767
5800 5800 5800 5800 5799 5799 5799 5799 5798 5798 5797 5796 5795 5794 5794 5793 5792 5791 5791 5790 5789 5788 5787 5786 5785 5784 5783 5782 5781 5780 5778 5777 5776 5776 5775 5774 5773 5771 5769 5768 5767 5766 5764 5763
5795 5795 5794 5794 5794 5793 5794 5795 5793 5793 5792 5791 5790 5791 5790 5790 5790 5789 5788 5787 5786 5786 5785 5784 5782 5781 5779 5778 5778 5777 5776 5774 5773 5773 5772 5771 5769 5768 5766 5765 5763 5762 5761 5760
5789 5789 5788 5788 5789 5788 5791 5789 5788 5787 5787 5787 5786 5786 5786 5786 5786 5785 5785 5784 5783 5783 5782 5781 5779 5778 5777 5776 5774 5773 5772 5771 5770 5769 5768 5767 5766 5764 5763 5761 5760 5759 5757 5756
5783 5783 5782 5782 5781 5781 5783 5783 5782 5782 5782 5782 5782 5783 5782 5782 5782 5781 5781 5780 5780 5779 5778 5777 5775 5774 5773 5772 5770 5769 5769 5768 5767 5765 5764 5763 5762 5760 5759 5757 5756 5754 5753 5751
5777 5777 5777 5776 5776 5776 5778 5777 5777 5778 5777 5777 5778 5778 5778 5778 5777 5777 5776 5775 5775 5774 5773 5772 5770 5770 5769 5768 5766 5766 5764 5763 5762 5761 5760 5758 5757 5755 5754 5752 5751 5750 5748 5746
5771 5771 5771 5770 5769 5770 5771 5771 5772 5773 5773 5773 5772 5773 5773 5772 5772 5772 5771 5770 5769 5769 5768 5767 5766 5765 5764 5763 5762 5761 5760 5759 5757 5756 5755 5754 5752 5750 5749 5747 5746 5744 5743 5741
5764 5764 5764 5764 5764 5766 5765 5765 5766 5767 5766 5766 5766 5767 5767 5767 5767 5767 5766 5765 5764 5763 5763 5762 5761 5760 5760 5758 5757 5756 5755 5754 5752 5751 5750 5748 5747 5745 5744 5742 5741 5739 5737 5735
5757 5757 5756 5757 5759 5758 5758 5758 5759 5760 5760 5760 5760 5761 5761 5761 5761 5761 5761 5759 5758 5758 5757 5756 5755 5754 5754 5753 5752 5751 5750 5748 5747 5745 5744 5743 5742 5740 5738 5737 5735 5733 5732 5730
5750 5749 5750 5750 5750 5751 5751 5751 5752 5752 5753 5754 5754 5754 5755 5755 5755 5755 5755 5754 5752 5752 5751 5751 5749 5749 5748 5747 5746 5745 5744 5743 5742 5740 5739 5737 5736 5735 5733 5731 5730 5728 5726 5725
5742 5742 5742 5742 5743 5744 5744 5744 5745 5745 5746 5747 5747 5748 5748 5748 5749 5749 5748 5747 5746 5745 5745 5744 5744 5743 5742 5741 5740 5740 5739 5738 5737 5735 5734 5732 5731 5730 5728 5726 5725 5723 5721 5720
5734 5734 5734 5735 5736 5736 5737 5738 5738 5738 5739 5740 5740 5740 5740 5741 5741 5741 5741 5740 5739 5739 5738 5738 5737 5736 5736 5735 5735 5734 5733 5732 5731 5730 5729 5728 5726 5725 5723 5722 5720 5718 5717 5715